Precipitable_Water
0.60 0.61 0.62 0.63 0.61 0.59 0.57 0.56 0.57 0.61 0.64 0.67 0.69 0.70 0.67 0.65 0.64 0.63 0.62 0.60 0.56 0.53 0.53 0.51 0.51 0.50 0.49 0.50 0.51 0.52 0.51 0.46 0.44 0.43 0.41 0.41 0.48 0.52 0.46 0.45 0.43 0.41 0.32 0.23 0.18 0.17 0.16 0.21 0.26 0.29 0.29 0.27 0.25 0.24 0.27 0.27 0.28 0.27 0.21 0.20 0.18 0.20 0.20 0.23 0.23 0.25 0.28 0.28 0.33 0.37 0.43 0.47 0.49 0.67 0.79 0.83 0.74 0.79 0.81 0.73 0.78 0.85 0.85 0.85 0.87 0.94 0.99 1.03
0.61 0.62 0.62 0.60 0.58 0.57 0.57 0.59 0.62 0.64 0.67 0.69 0.68 0.67 0.65 0.64 0.63 0.63 0.61 0.59 0.57 0.55 0.53 0.52 0.51 0.51 0.52 0.54 0.56 0.57 0.57 0.55 0.44 0.45 0.38 0.45 0.44 0.43 0.39 0.35 0.38 0.35 0.29 0.19 0.17 0.21 0.23 0.23 0.26 0.29 0.27 0.23 0.27 0.23 0.26 0.25 0.29 0.25 0.22 0.21 0.19 0.21 0.22 0.25 0.25 0.26 0.27 0.31 0.36 0.39 0.43 0.47 0.50 0.54 0.68 0.62 0.66 0.68 0.68 0.71 0.77 0.75 0.81 0.88 0.91 0.93 0.94 0.94
0.60 0.61 0.59 0.57 0.57 0.58 0.60 0.62 0.64 0.66 0.68 0.67 0.66 0.64 0.64 0.63 0.62 0.62 0.61 0.59 0.58 0.57 0.58 0.62 0.66 0.68 0.69 0.71 0.73 0.74 0.69 0.56 0.50 0.33 0.36 0.45 0.42 0.39 0.33 0.31 0.30 0.29 0.22 0.18 0.21 0.25 0.25 0.26 0.28 0.30 0.28 0.23 0.24 0.21 0.25 0.25 0.28 0.26 0.23 0.20 0.21 0.23 0.24 0.25 0.26 0.27 0.29 0.30 0.28 0.31 0.44 0.49 0.53 0.51 0.65 0.56 0.63 0.65 0.60 0.63 0.69 0.68 0.70 0.77 0.85 0.88 0.85 0.84
0.59 0.58 0.57 0.57 0.60 0.62 0.64 0.65 0.67 0.67 0.66 0.65 0.64 0.63 0.63 0.62 0.61 0.60 0.59 0.60 0.63 0.67 0.70 0.71 0.73 0.73 0.75 0.74 0.74 0.74 0.65 0.50 0.28 0.29 0.32 0.35 0.36 0.32 0.28 0.28 0.26 0.25 0.25 0.26 0.30 0.29 0.31 0.32 0.32 0.32 0.26 0.23 0.22 0.22 0.21 0.23 0.20 0.24 0.23 0.20 0.22 0.24 0.24 0.24 0.24 0.30 0.31 0.31 0.31 0.33 0.43 0.43 0.51 0.49 0.55 0.61 0.56 0.58 0.60 0.67 0.62 0.64 0.71 0.76 0.79 0.80 0.80 0.77
0.57 0.56 0.58 0.61 0.64 0.65 0.66 0.67 0.67 0.66 0.65 0.64 0.63 0.63 0.61 0.59 0.59 0.59 0.64 0.68 0.70 0.71 0.72 0.73 0.74 0.74 0.76 0.76 0.79 0.81 0.61 0.35 0.24 0.35 0.35 0.33 0.32 0.28 0.29 0.30 0.31 0.33 0.32 0.33 0.34 0.34 0.33 0.31 0.31 0.29 0.25 0.19 0.20 0.20 0.20 0.21 0.23 0.22 0.21 0.21 0.21 0.22 0.20 0.23 0.24 0.26 0.29 0.32 0.29 0.34 0.35 0.33 0.45 0.54 0.52 0.54 0.42 0.48 0.59 0.69 0.69 0.72 0.77 0.75 0.74 0.76 0.81 0.78
0.57 0.58 0.62 0.64 0.65 0.65 0.65 0.66 0.66 0.66 0.66 0.65 0.65 0.63 0.60 0.58 0.60 0.64 0.68 0.70 0.72 0.73 0.74 0.73 0.72 0.72 0.72 0.73 0.75 0.70 0.52 0.18 0.30 0.34 0.38 0.32 0.30 0.31 0.34 0.35 0.36 0.36 0.35 0.31 0.31 0.32 0.32 0.30 0.29 0.24 0.22 0.20 0.19 0.18 0.20 0.22 0.23 0.19 0.21 0.21 0.21 0.22 0.21 0.23 0.24 0.28 0.29 0.30 0.28 0.28 0.26 0.33 0.39 0.48 0.50 0.52 0.50 0.57 0.67 0.70 0.73 0.76 0.77 0.81 0.82 0.81 0.79 0.78
0.59 0.61 0.63 0.65 0.65 0.65 0.66 0.67 0.68 0.68 0.67 0.65 0.64 0.62 0.61 0.60 0.64 0.67 0.69 0.71 0.72 0.72 0.72 0.72 0.72 0.72 0.73 0.78 0.75 0.65 0.43 0.32 0.36 0.36 0.33 0.32 0.33 0.38 0.39 0.38 0.38 0.34 0.34 0.31 0.30 0.30 0.30 0.28 0.28 0.25 0.23 0.22 0.21 0.20 0.22 0.24 0.24 0.20 0.18 0.20 0.21 0.22 0.21 0.23 0.23 0.29 0.28 0.29 0.26 0.29 0.28 0.34 0.34 0.39 0.51 0.55 0.61 0.65 0.74 0.76 0.74 0.80 0.84 0.86 0.81 0.81 0.74 0.70
0.60 0.62 0.64 0.65 0.66 0.67 0.68 0.68 0.68 0.67 0.65 0.64 0.62 0.63 0.62 0.64 0.65 0.66 0.68 0.68 0.69 0.71 0.72 0.73 0.74 0.77 0.78 0.71 0.58 0.44 0.40 0.28 0.34 0.36 0.33 0.34 0.40 0.41 0.42 0.39 0.38 0.36 0.33 0.31 0.31 0.30 0.31 0.28 0.26 0.27 0.24 0.21 0.21 0.19 0.20 0.20 0.22 0.20 0.17 0.19 0.21 0.22 0.21 0.21 0.21 0.23 0.25 0.26 0.26 0.27 0.25 0.25 0.34 0.36 0.45 0.48 0.60 0.70 0.74 0.78 0.76 0.79 0.80 0.81 0.79 0.76 0.72 0.66
0.60 0.62 0.64 0.65 0.66 0.66 0.66 0.66 0.65 0.65 0.64 0.64 0.64 0.63 0.63 0.64 0.66 0.67 0.67 0.68 0.68 0.69 0.70 0.73 0.74 0.77 0.82 0.73 0.51 0.37 0.27 0.33 0.37 0.36 0.35 0.36 0.39 0.40 0.39 0.33 0.37 0.34 0.33 0.34 0.35 0.33 0.31 0.26 0.25 0.24 0.20 0.20 0.22 0.19 0.19 0.17 0.18 0.20 0.19 0.18 0.18 0.19 0.20 0.20 0.20 0.21 0.21 0.22 0.22 0.22 0.24 0.25 0.30 0.40 0.41 0.53 0.62 0.68 0.74 0.74 0.73 0.74 0.73 0.74 0.73 0.72 0.69 0.65
0.61 0.63 0.63 0.63 0.64 0.63 0.63 0.62 0.62 0.62 0.63 0.64 0.65 0.64 0.63 0.65 0.66 0.67 0.68 0.69 0.68 0.69 0.71 0.73 0.74 0.75 0.71 0.59 0.50 0.33 0.36 0.40 0.37 0.38 0.41 0.41 0.42 0.42 0.42 0.38 0.39 0.35 0.32 0.32 0.32 0.31 0.28 0.27 0.26 0.26 0.24 0.21 0.22 0.20 0.20 0.17 0.16 0.18 0.18 0.18 0.18 0.19 0.19 0.20 0.19 0.19 0.20 0.20 0.21 0.18 0.20 0.23 0.28 0.36 0.47 0.65 0.65 0.73 0.71 0.69 0.75 0.73 0.69 0.70 0.69 0.70 0.69 0.63
0.61 0.61 0.62 0.62 0.62 0.60 0.59 0.60 0.61 0.62 0.64 0.66 0.65 0.64 0.63 0.64 0.65 0.66 0.67 0.68 0.68 0.70 0.70 0.71 0.73 0.73 0.57 0.56 0.36 0.31 0.51 0.33 0.38 0.43 0.46 0.46 0.43 0.39 0.37 0.39 0.40 0.35 0.33 0.31 0.29 0.31 0.31 0.29 0.30 0.26 0.23 0.20 0.21 0.20 0.19 0.17 0.19 0.17 0.17 0.17 0.17 0.17 0.18 0.17 0.17 0.16 0.17 0.16 0.19 0.19 0.19 0.22 0.24 0.26 0.40 0.60 0.71 0.73 0.65 0.65 0.71 0.74 0.71 0.70 0.70 0.69 0.69 0.65
0.59 0.60 0.61 0.62 0.60 0.59 0.59 0.60 0.61 0.62 0.63 0.64 0.65 0.65 0.65 0.65 0.65 0.65 0.64 0.65 0.67 0.66 0.67 0.69 0.71 0.72 0.61 0.46 0.36 0.35 0.51 0.43 0.33 0.37 0.40 0.41 0.38 0.39 0.40 0.40 0.39 0.35 0.33 0.29 0.27 0.28 0.28 0.28 0.27 0.25 0.19 0.23 0.19 0.20 0.18 0.20 0.19 0.19 0.18 0.14 0.15 0.15 0.15 0.15 0.15 0.17 0.18 0.17 0.20 0.21 0.18 0.18 0.21 0.21 0.44 0.58 0.75 0.74 0.63 0.62 0.67 0.70 0.72 0.71 0.72 0.72 0.70 0.69
0.59 0.60 0.60 0.61 0.60 0.59 0.59 0.60 0.61 0.61 0.62 0.62 0.63 0.64 0.64 0.64 0.65 0.66 0.66 0.65 0.66 0.69 0.72 0.71 0.72 0.72 0.51 0.30 0.36 0.46 0.49 0.46 0.40 0.43 0.42 0.43 0.41 0.41 0.41 0.40 0.39 0.36 0.34 0.31 0.27 0.27 0.27 0.27 0.27 0.23 0.24 0.22 0.21 0.18 0.21 0.22 0.21 0.19 0.18 0.16 0.16 0.16 0.16 0.17 0.17 0.18 0.18 0.18 0.21 0.20 0.12 0.14 0.17 0.22 0.48 0.57 0.69 0.72 0.62 0.62 0.65 0.68 0.72 0.76 0.76 0.75 0.74 0.77
0.59 0.59 0.60 0.61 0.61 0.60 0.60 0.61 0.61 0.63 0.64 0.64 0.64 0.63 0.63 0.64 0.66 0.68 0.70 0.65 0.68 0.71 0.72 0.71 0.72 0.64 0.48 0.28 0.36 0.44 0.50 0.50 0.47 0.43 0.41 0.43 0.41 0.38 0.39 0.36 0.35 0.33 0.34 0.29 0.27 0.26 0.26 0.27 0.27 0.24 0.26 0.23 0.22 0.26 0.22 0.21 0.22 0.18 0.18 0.19 0.17 0.16 0.18 0.24 0.21 0.19 0.17 0.20 0.22 0.21 0.13 0.15 0.17 0.22 0.40 0.58 0.60 0.60 0.58 0.64 0.67 0.71 0.74 0.76 0.78 0.77 0.76 0.77
0.59 0.59 0.60 0.61 0.61 0.60 0.60 0.62 0.64 0.64 0.65 0.65 0.67 0.68 0.69 0.70 0.70 0.70 0.71 0.68 0.70 0.72 0.72 0.72 0.69 0.53 0.38 0.32 0.39 0.43 0.47 0.48 0.41 0.40 0.42 0.40 0.37 0.35 0.34 0.34 0.33 0.33 0.33 0.33 0.31 0.29 0.27 0.26 0.27 0.24 0.23 0.26 0.27 0.27 0.25 0.24 0.23 0.22 0.19 0.16 0.18 0.17 0.20 0.22 0.21 0.20 0.17 0.20 0.23 0.21 0.15 0.16 0.19 0.22 0.30 0.45 0.52 0.53 0.57 0.64 0.67 0.72 0.76 0.80 0.83 0.83 0.80 0.79
0.59 0.59 0.59 0.60 0.60 0.60 0.62 0.65 0.66 0.66 0.65 0.65 0.65 0.67 0.69 0.71 0.74 0.74 0.75 0.69 0.70 0.71 0.73 0.62 0.57 0.51 0.36 0.26 0.32 0.43 0.40 0.35 0.34 0.39 0.41 0.41 0.39 0.35 0.35 0.34 0.35 0.35 0.35 0.33 0.34 0.34 0.33 0.31 0.29 0.29 0.28 0.29 0.28 0.27 0.26 0.25 0.24 0.26 0.22 0.20 0.20 0.20 0.22 0.21 0.22 0.21 0.19 0.20 0.23 0.22 0.17 0.18 0.27 0.39 0.32 0.43 0.50 0.53 0.53 0.62 0.71 0.77 0.79 0.81 0.81 0.80 0.80 0.84
0.59 0.59 0.59 0.60 0.60 0.61 0.63 0.65 0.65 0.66 0.67 0.68 0.69 0.69 0.71 0.71 0.73 0.76 0.74 0.74 0.71 0.72 0.64 0.50 0.58 0.56 0.29 0.36 0.43 0.34 0.31 0.36 0.40 0.39 0.40 0.43 0.41 0.38 0.37 0.36 0.34 0.34 0.35 0.34 0.34 0.33 0.33 0.32 0.31 0.31 0.32 0.30 0.30 0.30 0.26 0.24 0.23 0.25 0.26 0.23 0.25 0.24 0.25 0.24 0.27 0.30 0.24 0.20 0.21 0.23 0.25 0.49 0.40 0.40 0.37 0.44 0.54 0.63 0.58 0.67 0.72 0.76 0.83 0.89 0.91 0.90 0.90 0.91
0.59 0.58 0.59 0.60 0.60 0.61 0.63 0.64 0.65 0.67 0.69 0.72 0.77 0.79 0.78 0.79 0.78 0.72 0.74 0.73 0.78 0.73 0.64 0.64 0.54 0.48 0.34 0.44 0.29 0.32 0.36 0.35 0.36 0.37 0.39 0.41 0.42 0.40 0.39 0.38 0.38 0.36 0.34 0.33 0.34 0.32 0.33 0.30 0.31 0.26 0.31 0.33 0.34 0.32 0.25 0.23 0.26 0.27 0.27 0.25 0.26 0.28 0.29 0.25 0.25 0.29 0.30 0.24 0.20 0.23 0.46 0.43 0.38 0.42 0.47 0.49 0.45 0.53 0.57 0.70 0.79 0.85 0.89 0.89 0.85 0.89 0.91 0.92
0.58 0.58 0.59 0.60 0.61 0.62 0.65 0.68 0.71 0.74 0.76 0.76 0.75 0.80 0.83 0.84 0.85 0.71 0.58 0.65 0.55 0.45 0.36 0.32 0.35 0.21 0.21 0.30 0.37 0.38 0.38 0.38 0.39 0.38 0.36 0.40 0.40 0.41 0.41 0.40 0.38 0.36 0.32 0.32 0.29 0.31 0.32 0.30 0.32 0.28 0.29 0.32 0.34 0.34 0.31 0.32 0.33 0.31 0.31 0.30 0.29 0.28 0.29 0.28 0.33 0.35 0.29 0.23 0.34 0.43 0.38 0.40 0.46 0.45 0.48 0.51 0.52 0.56 0.64 0.77 0.87 0.88 0.88 0.88 0.88 0.93 0.98 1.00
0.58 0.58 0.59 0.60 0.62 0.66 0.70 0.75 0.77 0.77 0.77 0.72 0.68 0.70 0.68 0.54 0.51 0.47 0.60 0.58 0.47 0.42 0.36 0.36 0.39 0.31 0.33 0.34 0.36 0.41 0.44 0.43 0.35 0.36 0.38 0.41 0.41 0.40 0.39 0.39 0.36 0.36 0.33 0.29 0.30 0.31 0.31 0.27 0.31 0.30 0.34 0.37 0.38 0.39 0.37 0.37 0.36 0.34 0.33 0.31 0.30 0.31 0.32 0.35 0.37 0.42 0.41 0.41 0.50 0.40 0.43 0.44 0.47 0.52 0.52 0.55 0.56 0.59 0.69 0.73 0.78 0.82 0.86 0.88 0.88 0.92 0.97 0.98
0.57 0.57 0.58 0.59 0.62 0.66 0.71 0.73 0.73 0.73 0.74 0.72 0.69 0.63 0.45 0.49 0.40 0.34 0.43 0.43 0.50 0.49 0.42 0.39 0.41 0.35 0.35 0.38 0.40 0.41 0.37 0.38 0.40 0.37 0.39 0.46 0.42 0.39 0.36 0.39 0.34 0.31 0.32 0.32 0.30 0.32 0.34 0.34 0.34 0.36 0.38 0.38 0.39 0.40 0.38 0.36 0.36 0.34 0.32 0.32 0.31 0.31 0.31 0.36 0.38 0.43 0.45 0.39 0.44 0.45 0.43 0.44 0.48 0.54 0.57 0.59 0.57 0.61 0.68 0.73 0.79 0.83 0.88 0.90 0.90 0.92 0.96 1.00
0.55 0.55 0.56 0.57 0.60 0.65 0.69 0.70 0.71 0.71 0.74 0.73 0.66 0.55 0.60 0.60 0.66 0.68 0.59 0.38 0.42 0.46 0.44 0.43 0.43 0.39 0.43 0.43 0.45 0.44 0.42 0.38 0.39 0.40 0.45 0.43 0.39 0.38 0.35 0.38 0.36 0.33 0.34 0.33 0.32 0.34 0.33 0.32 0.36 0.38 0.41 0.40 0.39 0.38 0.38 0.36 0.35 0.34 0.32 0.32 0.30 0.33 0.36 0.40 0.42 0.47 0.52 0.42 0.47 0.49 0.41 0.47 0.50 0.53 0.56 0.56 0.60 0.69 0.76 0.79 0.82 0.84 0.87 0.90 0.92 0.93 0.95 0.95
0.54 0.54 0.53 0.55 0.57 0.62 0.65 0.67 0.69 0.73 0.73 0.65 0.56 0.57 0.60 0.74 0.79 0.75 0.63 0.47 0.42 0.46 0.41 0.37 0.35 0.37 0.40 0.44 0.45 0.48 0.39 0.37 0.37 0.41 0.43 0.44 0.38 0.39 0.40 0.39 0.38 0.36 0.35 0.35 0.31 0.31 0.28 0.33 0.36 0.38 0.38 0.35 0.32 0.27 0.26 0.28 0.30 0.28 0.28 0.27 0.26 0.32 0.31 0.31 0.39 0.43 0.49 0.46 0.47 0.50 0.43 0.50 0.54 0.55 0.55 0.59 0.61 0.67 0.76 0.81 0.86 0.91 0.88 0.86 0.91 0.95 1.01 0.98
0.53 0.53 0.53 0.54 0.56 0.58 0.61 0.63 0.72 0.76 0.70 0.67 0.61 0.60 0.75 0.84 0.78 0.71 0.55 0.39 0.37 0.41 0.42 0.42 0.42 0.41 0.38 0.41 0.44 0.42 0.35 0.37 0.42 0.40 0.47 0.44 0.37 0.42 0.41 0.38 0.36 0.35 0.30 0.35 0.34 0.32 0.31 0.35 0.38 0.36 0.33 0.29 0.25 0.23 0.23 0.22 0.20 0.23 0.27 0.29 0.28 0.31 0.35 0.34 0.35 0.41 0.44 0.47 0.51 0.49 0.42 0.44 0.51 0.48 0.50 0.59 0.64 0.63 0.66 0.73 0.77 0.83 0.85 0.90 0.98 0.98 1.00 0.98
0.52 0.52 0.53 0.54 0.54 0.57 0.57 0.65 0.69 0.68 0.76 0.72 0.68 0.74 0.80 0.80 0.77 0.71 0.53 0.46 0.47 0.41 0.49 0.48 0.48 0.43 0.48 0.57 0.52 0.42 0.40 0.41 0.43 0.46 0.47 0.47 0.43 0.42 0.38 0.41 0.37 0.33 0.34 0.34 0.35 0.33 0.33 0.36 0.36 0.33 0.30 0.29 0.26 0.23 0.23 0.24 0.23 0.23 0.29 0.26 0.26 0.33 0.35 0.38 0.39 0.38 0.39 0.35 0.39 0.39 0.31 0.35 0.48 0.50 0.50 0.56 0.59 0.59 0.67 0.66 0.68 0.72 0.76 0.81 0.82 0.84 0.91 0.92
0.51 0.52 0.52 0.54 0.55 0.57 0.63 0.65 0.64 0.71 0.71 0.67 0.74 0.79 0.79 0.80 0.76 0.76 0.60 0.39 0.28 0.38 0.43 0.33 0.49 0.36 0.54 0.43 0.45 0.45 0.45 0.37 0.47 0.44 0.44 0.46 0.50 0.40 0.40 0.37 0.39 0.29 0.34 0.33 0.34 0.35 0.34 0.37 0.35 0.31 0.30 0.28 0.27 0.24 0.25 0.27 0.25 0.25 0.28 0.31 0.31 0.30 0.34 0.38 0.38 0.35 0.31 0.28 0.35 0.40 0.28 0.30 0.46 0.46 0.51 0.54 0.54 0.57 0.62 0.63 0.66 0.69 0.71 0.72 0.74 0.79 0.82 0.85
0.52 0.51 0.52 0.54 0.56 0.61 0.58 0.52 0.73 0.73 0.62 0.65 0.80 0.83 0.80 0.79 0.77 0.73 0.54 0.30 0.25 0.36 0.34 0.39 0.46 0.38 0.52 0.41 0.45 0.43 0.30 0.33 0.48 0.46 0.47 0.50 0.49 0.41 0.37 0.31 0.35 0.35 0.36 0.32 0.33 0.32 0.36 0.35 0.34 0.33 0.30 0.28 0.28 0.26 0.28 0.30 0.27 0.26 0.33 0.36 0.33 0.31 0.30 0.35 0.37 0.36 0.36 0.38 0.39 0.40 0.36 0.31 0.34 0.44 0.53 0.55 0.52 0.53 0.55 0.58 0.61 0.65 0.70 0.75 0.80 0.81 0.82 0.83
0.52 0.52 0.52 0.54 0.59 0.66 0.62 0.68 0.67 0.61 0.65 0.77 0.87 0.81 0.74 0.71 0.76 0.75 0.48 0.18 0.20 0.43 0.38 0.39 0.43 0.54 0.48 0.46 0.47 0.38 0.36 0.40 0.37 0.38 0.49 0.51 0.53 0.43 0.39 0.31 0.30 0.33 0.36 0.33 0.25 0.36 0.35 0.33 0.32 0.29 0.29 0.27 0.26 0.30 0.33 0.32 0.29 0.32 0.38 0.38 0.35 0.31 0.31 0.33 0.35 0.36 0.36 0.34 0.28 0.34 0.36 0.30 0.34 0.44 0.54 0.54 0.46 0.50 0.53 0.57 0.61 0.65 0.69 0.73 0.79 0.82 0.84 0.86
0.52 0.52 0.52 0.55 0.61 0.72 0.73 0.68 0.66 0.59 0.72 0.83 0.79 0.78 0.73 0.74 0.71 0.56 0.36 0.20 0.36 0.38 0.60 0.36 0.54 0.51 0.46 0.46 0.42 0.43 0.42 0.39 0.33 0.40 0.49 0.52 0.52 0.47 0.38 0.34 0.34 0.35 0.38 0.34 0.30 0.34 0.37 0.34 0.33 0.32 0.29 0.25 0.29 0.33 0.35 0.32 0.28 0.35 0.40 0.41 0.39 0.39 0.35 0.31 0.33 0.34 0.35 0.31 0.26 0.31 0.34 0.27 0.33 0.44 0.46 0.52 0.48 0.47 0.52 0.57 0.62 0.65 0.68 0.70 0.72 0.77 0.85 0.88
0.52 0.52 0.53 0.55 0.60 0.62 0.62 0.67 0.62 0.70 0.74 0.77 0.75 0.75 0.76 0.74 0.61 0.35 0.25 0.19 0.44 0.31 0.44 0.39 0.40 0.37 0.43 0.38 0.38 0.41 0.39 0.37 0.40 0.43 0.46 0.43 0.46 0.48 0.43 0.35 0.29 0.34 0.34 0.37 0.35 0.35 0.36 0.39 0.38 0.33 0.29 0.30 0.32 0.33 0.36 0.35 0.36 0.40 0.39 0.37 0.35 0.35 0.35 0.34 0.32 0.33 0.33 0.26 0.29 0.34 0.35 0.30 0.26 0.40 0.44 0.43 0.47 0.53 0.56 0.59 0.63 0.67 0.70 0.73 0.75 0.77 0.80 0.86
0.52 0.52 0.52 0.58 0.55 0.61 0.60 0.51 0.62 0.71 0.71 0.75 0.74 0.74 0.72 0.66 0.42 0.29 0.18 0.26 0.44 0.39 0.48 0.38 0.33 0.42 0.38 0.35 0.32 0.35 0.37 0.37 0.35 0.39 0.37 0.44 0.41 0.43 0.43 0.35 0.28 0.26 0.32 0.32 0.30 0.32 0.33 0.34 0.34 0.34 0.37 0.34 0.35 0.33 0.36 0.37 0.37 0.36 0.34 0.34 0.33 0.31 0.33 0.30 0.28 0.33 0.26 0.25 0.33 0.38 0.35 0.33 0.22 0.38 0.48 0.55 0.61 0.62 0.59 0.57 0.61 0.65 0.69 0.73 0.77 0.80 0.83 0.85
0.52 0.52 0.55 0.58 0.67 0.67 0.53 0.46 0.60 0.66 0.67 0.73 0.71 0.68 0.63 0.33 0.39 0.22 0.23 0.48 0.26 0.31 0.35 0.30 0.35 0.39 0.40 0.35 0.30 0.34 0.35 0.33 0.34 0.35 0.33 0.36 0.33 0.32 0.31 0.24 0.17 0.16 0.24 0.27 0.26 0.31 0.28 0.29 0.33 0.34 0.36 0.32 0.30 0.28 0.30 0.35 0.34 0.32 0.33 0.33 0.27 0.24 0.25 0.19 0.24 0.21 0.24 0.24 0.34 0.40 0.36 0.29 0.32 0.42 0.51 0.56 0.60 0.63 0.64 0.64 0.64 0.67 0.69 0.73 0.78 0.81 0.84 0.87
0.58 0.60 0.63 0.67 0.67 0.58 0.57 0.58 0.62 0.65 0.67 0.71 0.65 0.66 0.47 0.29 0.20 0.33 0.30 0.34 0.25 0.37 0.32 0.39 0.35 0.40 0.40 0.35 0.27 0.31 0.34 0.30 0.35 0.39 0.37 0.38 0.36 0.36 0.35 0.30 0.23 0.16 0.16 0.25 0.27 0.27 0.26 0.32 0.32 0.32 0.32 0.34 0.31 0.23 0.25 0.27 0.30 0.29 0.29 0.28 0.25 0.22 0.21 0.18 0.20 0.25 0.26 0.33 0.41 0.37 0.41 0.31 0.45 0.48 0.57 0.56 0.61 0.64 0.66 0.68 0.69 0.69 0.70 0.73 0.77 0.81 0.83 0.86
0.63 0.63 0.57 0.63 0.60 0.57 0.56 0.60 0.64 0.67 0.66 0.63 0.65 0.55 0.42 0.27 0.23 0.43 0.37 0.34 0.28 0.37 0.42 0.40 0.42 0.42 0.41 0.35 0.31 0.29 0.30 0.36 0.38 0.38 0.39 0.36 0.36 0.31 0.30 0.29 0.24 0.17 0.19 0.22 0.21 0.23 0.19 0.23 0.27 0.29 0.26 0.35 0.31 0.28 0.29 0.30 0.31 0.30 0.34 0.29 0.27 0.28 0.22 0.18 0.21 0.17 0.19 0.24 0.32 0.41 0.31 0.31 0.33 0.40 0.59 0.60 0.64 0.67 0.69 0.70 0.70 0.70 0.72 0.75 0.77 0.78 0.80 0.81
0.61 0.60 0.59 0.59 0.58 0.55 0.55 0.60 0.64 0.70 0.66 0.58 0.54 0.42 0.26 0.28 0.35 0.32 0.34 0.36 0.34 0.32 0.40 0.50 0.39 0.40 0.38 0.36 0.34 0.30 0.29 0.34 0.41 0.39 0.38 0.35 0.31 0.31 0.27 0.26 0.25 0.23 0.20 0.19 0.20 0.24 0.23 0.24 0.32 0.34 0.34 0.36 0.31 0.34 0.35 0.32 0.30 0.32 0.36 0.35 0.29 0.27 0.35 0.23 0.26 0.27 0.26 0.25 0.25 0.30 0.32 0.43 0.39 0.56 0.60 0.63 0.65 0.65 0.66 0.67 0.67 0.67 0.70 0.69 0.67 0.67 0.69 0.71
0.63 0.66 0.77 0.64 0.63 0.60 0.67 0.66 0.69 0.71 0.60 0.55 0.41 0.29 0.25 0.31 0.28 0.34 0.29 0.34 0.34 0.36 0.39 0.42 0.38 0.35 0.31 0.30 0.32 0.30 0.34 0.31 0.39 0.39 0.37 0.36 0.36 0.33 0.32 0.27 0.24 0.25 0.23 0.19 0.23 0.19 0.23 0.24 0.34 0.34 0.37 0.33 0.34 0.36 0.34 0.32 0.17 0.27 0.31 0.25 0.31 0.41 0.36 0.29 0.30 0.32 0.30 0.28 0.26 0.39 0.35 0.42 0.53 0.55 0.58 0.59 0.60 0.61 0.64 0.63 0.63 0.63 0.63 0.63 0.61 0.62 0.63 0.65
0.63 0.71 0.61 0.66 0.62 0.67 0.70 0.72 0.71 0.65 0.54 0.50 0.36 0.26 0.35 0.37 0.39 0.36 0.36 0.31 0.35 0.43 0.40 0.34 0.31 0.32 0.29 0.27 0.28 0.30 0.33 0.34 0.33 0.34 0.30 0.39 0.31 0.30 0.28 0.27 0.29 0.29 0.30 0.29 0.23 0.29 0.22 0.25 0.36 0.35 0.32 0.35 0.38 0.36 0.34 0.34 0.32 0.28 0.22 0.30 0.40 0.43 0.40 0.32 0.22 0.26 0.26 0.22 0.26 0.37 0.32 0.34 0.37 0.29 0.54 0.54 0.53 0.55 0.57 0.57 0.57 0.58 0.58 0.57 0.60 0.61 0.62 0.64
0.59 0.60 0.61 0.60 0.61 0.69 0.71 0.76 0.72 0.58 0.54 0.50 0.32 0.32 0.38 0.31 0.30 0.27 0.34 0.36 0.41 0.41 0.36 0.34 0.34 0.40 0.30 0.28 0.29 0.29 0.31 0.26 0.28 0.32 0.29 0.33 0.25 0.30 0.24 0.22 0.28 0.33 0.35 0.36 0.25 0.27 0.32 0.25 0.33 0.38 0.37 0.38 0.39 0.36 0.34 0.37 0.37 0.28 0.25 0.37 0.33 0.24 0.25 0.30 0.28 0.18 0.19 0.20 0.23 0.31 0.35 0.35 0.37 0.36 0.46 0.46 0.47 0.49 0.52 0.54 0.53 0.53 0.56 0.57 0.59 0.61 0.63 0.66
0.62 0.62 0.45 0.51 0.64 0.68 0.63 0.71 0.64 0.58 0.55 0.41 0.37 0.32 0.34 0.34 0.30 0.32 0.35 0.40 0.42 0.40 0.34 0.36 0.33 0.35 0.34 0.27 0.29 0.29 0.28 0.24 0.29 0.29 0.26 0.25 0.22 0.24 0.27 0.27 0.23 0.36 0.39 0.38 0.32 0.32 0.36 0.27 0.28 0.38 0.36 0.37 0.38 0.35 0.24 0.28 0.34 0.35 0.34 0.30 0.38 0.35 0.29 0.27 0.27 0.28 0.27 0.20 0.23 0.25 0.32 0.28 0.41 0.42 0.45 0.45 0.49 0.51 0.51 0.51 0.52 0.54 0.56 0.58 0.59 0.60 0.61 0.62
0.63 0.53 0.44 0.66 0.72 0.73 0.74 0.69 0.60 0.63 0.53 0.34 0.37 0.34 0.37 0.31 0.29 0.35 0.40 0.40 0.36 0.36 0.33 0.36 0.37 0.32 0.31 0.28 0.30 0.26 0.29 0.29 0.28 0.27 0.26 0.25 0.24 0.28 0.29 0.32 0.25 0.33 0.39 0.42 0.34 0.37 0.30 0.35 0.23 0.32 0.38 0.36 0.27 0.33 0.28 0.28 0.25 0.24 0.23 0.23 0.30 0.34 0.40 0.38 0.36 0.31 0.25 0.21 0.21 0.22 0.21 0.30 0.41 0.49 0.47 0.48 0.51 0.52 0.52 0.51 0.52 0.54 0.56 0.58 0.58 0.59 0.60 0.61
0.70 0.54 0.48 0.69 0.68 0.71 0.70 0.64 0.55 0.50 0.45 0.44 0.40 0.31 0.33 0.31 0.34 0.35 0.39 0.40 0.36 0.40 0.38 0.35 0.35 0.32 0.30 0.28 0.27 0.28 0.27 0.27 0.27 0.26 0.27 0.29 0.26 0.23 0.33 0.30 0.25 0.23 0.38 0.39 0.34 0.34 0.31 0.29 0.25 0.30 0.30 0.28 0.30 0.37 0.36 0.34 0.33 0.28 0.26 0.24 0.26 0.28 0.29 0.24 0.21 0.36 0.33 0.26 0.22 0.21 0.20 0.32 0.45 0.54 0.52 0.50 0.53 0.53 0.54 0.53 0.51 0.52 0.54 0.56 0.58 0.60 0.61 0.61
0.55 0.39 0.45 0.68 0.68 0.66 0.59 0.47 0.51 0.55 0.43 0.33 0.30 0.33 0.31 0.40 0.36 0.36 0.40 0.42 0.40 0.34 0.39 0.34 0.31 0.30 0.29 0.26 0.27 0.26 0.26 0.24 0.27 0.27 0.30 0.29 0.31 0.31 0.34 0.35 0.26 0.27 0.32 0.26 0.29 0.37 0.37 0.34 0.31 0.26 0.29 0.31 0.35 0.38 0.40 0.40 0.38 0.35 0.32 0.26 0.28 0.29 0.29 0.24 0.19 0.24 0.31 0.30 0.33 0.30 0.24 0.29 0.49 0.55 0.54 0.53 0.52 0.52 0.53 0.53 0.50 0.52 0.52 0.53 0.56 0.58 0.61 0.62
0.51 0.46 0.58 0.68 0.65 0.58 0.55 0.44 0.48 0.45 0.35 0.37 0.40 0.36 0.38 0.36 0.37 0.42 0.42 0.42 0.33 0.39 0.32 0.28 0.27 0.26 0.26 0.28 0.27 0.25 0.30 0.27 0.27 0.27 0.30 0.32 0.32 0.35 0.38 0.37 0.32 0.29 0.34 0.31 0.37 0.34 0.42 0.31 0.27 0.29 0.34 0.38 0.42 0.42 0.39 0.38 0.34 0.29 0.30 0.30 0.27 0.22 0.25 0.26 0.26 0.30 0.27 0.28 0.26 0.26 0.23 0.31 0.46 0.55 0.54 0.54 0.52 0.51 0.52 0.52 0.51 0.51 0.53 0.53 0.53 0.55 0.56 0.57
0.51 0.49 0.49 0.64 0.68 0.63 0.48 0.31 0.30 0.33 0.35 0.38 0.36 0.29 0.37 0.36 0.36 0.34 0.35 0.38 0.36 0.34 0.30 0.28 0.29 0.32 0.30 0.33 0.27 0.24 0.28 0.27 0.29 0.30 0.30 0.33 0.31 0.40 0.40 0.39 0.38 0.29 0.29 0.28 0.26 0.31 0.30 0.32 0.30 0.26 0.26 0.29 0.30 0.34 0.34 0.32 0.33 0.28 0.26 0.27 0.28 0.28 0.30 0.31 0.30 0.34 0.25 0.27 0.27 0.23 0.18 0.27 0.42 0.53 0.53 0.51 0.47 0.43 0.44 0.48 0.50 0.47 0.48 0.49 0.50 0.52 0.54 0.56
0.51 0.54 0.51 0.56 0.62 0.57 0.42 0.43 0.37 0.33 0.33 0.31 0.28 0.24 0.28 0.34 0.36 0.34 0.32 0.30 0.38 0.34 0.30 0.26 0.31 0.34 0.31 0.31 0.26 0.30 0.29 0.27 0.26 0.31 0.33 0.32 0.32 0.40 0.41 0.41 0.41 0.36 0.36 0.36 0.37 0.43 0.33 0.30 0.29 0.22 0.19 0.17 0.15 0.13 0.14 0.20 0.24 0.29 0.30 0.28 0.28 0.25 0.24 0.25 0.23 0.25 0.20 0.26 0.26 0.23 0.23 0.33 0.42 0.48 0.46 0.44 0.42 0.42 0.47 0.49 0.50 0.50 0.49 0.49 0.50 0.51 0.52 0.52
0.43 0.29 0.38 0.44 0.48 0.48 0.50 0.55 0.45 0.37 0.32 0.28 0.26 0.25 0.26 0.23 0.30 0.36 0.34 0.27 0.35 0.35 0.34 0.34 0.34 0.35 0.31 0.29 0.26 0.26 0.26 0.29 0.26 0.28 0.30 0.29 0.32 0.36 0.40 0.41 0.39 0.39 0.43 0.44 0.44 0.43 0.34 0.35 0.31 0.28 0.24 0.20 0.22 0.24 0.31 0.33 0.30 0.25 0.26 0.26 0.26 0.28 0.26 0.25 0.25 0.21 0.18 0.24 0.21 0.24 0.26 0.28 0.32 0.38 0.38 0.40 0.41 0.40 0.44 0.45 0.44 0.46 0.49 0.50 0.49 0.48 0.49 0.50
0.56 0.41 0.38 0.29 0.36 0.40 0.40 0.44 0.41 0.37 0.28 0.32 0.23 0.29 0.23 0.24 0.27 0.28 0.36 0.29 0.30 0.29 0.31 0.32 0.31 0.28 0.27 0.29 0.26 0.26 0.29 0.28 0.28 0.28 0.27 0.29 0.32 0.34 0.41 0.39 0.39 0.43 0.43 0.40 0.41 0.37 0.31 0.28 0.30 0.31 0.30 0.30 0.31 0.30 0.33 0.33 0.29 0.29 0.26 0.26 0.29 0.28 0.27 0.24 0.18 0.16 0.23 0.23 0.19 0.27 0.32 0.27 0.30 0.34 0.35 0.36 0.38 0.40 0.43 0.43 0.43 0.45 0.47 0.47 0.47 0.47 0.47 0.46
0.48 0.53 0.57 0.50 0.37 0.30 0.32 0.34 0.40 0.36 0.39 0.37 0.28 0.35 0.25 0.27 0.26 0.22 0.29 0.33 0.36 0.37 0.30 0.29 0.29 0.31 0.31 0.28 0.30 0.23 0.28 0.28 0.25 0.23 0.30 0.29 0.30 0.33 0.35 0.37 0.35 0.41 0.41 0.37 0.41 0.32 0.26 0.24 0.30 0.31 0.29 0.31 0.32 0.32 0.34 0.33 0.33 0.32 0.31 0.30 0.29 0.30 0.29 0.26 0.25 0.26 0.24 0.18 0.17 0.25 0.30 0.31 0.32 0.34 0.36 0.38 0.39 0.40 0.41 0.42 0.44 0.46 0.47 0.48 0.46 0.42 0.42 0.43
0.70 0.62 0.59 0.63 0.47 0.43 0.40 0.41 0.41 0.40 0.37 0.33 0.32 0.33 0.27 0.29 0.27 0.29 0.26 0.27 0.31 0.27 0.29 0.20 0.23 0.27 0.30 0.34 0.30 0.23 0.24 0.20 0.19 0.26 0.26 0.27 0.26 0.27 0.27 0.31 0.33 0.39 0.37 0.34 0.34 0.35 0.31 0.24 0.30 0.30 0.27 0.30 0.33 0.33 0.34 0.33 0.32 0.32 0.33 0.32 0.32 0.31 0.30 0.30 0.29 0.29 0.27 0.25 0.26 0.27 0.28 0.31 0.34 0.36 0.38 0.39 0.43 0.43 0.44 0.47 0.48 0.46 0.46 0.46 0.45 0.43 0.43 0.43
0.55 0.53 0.49 0.60 0.57 0.49 0.46 0.43 0.40 0.37 0.29 0.32 0.25 0.32 0.31 0.30 0.27 0.29 0.32 0.31 0.25 0.26 0.33 0.23 0.23 0.26 0.30 0.30 0.28 0.22 0.22 0.22 0.21 0.19 0.26 0.27 0.25 0.25 0.26 0.25 0.24 0.29 0.31 0.26 0.30 0.33 0.28 0.23 0.31 0.28 0.26 0.28 0.33 0.35 0.34 0.33 0.31 0.29 0.32 0.34 0.33 0.32 0.32 0.32 0.31 0.30 0.29 0.28 0.29 0.28 0.26 0.26 0.35 0.41 0.42 0.44 0.46 0.46 0.46 0.44 0.44 0.45 0.45 0.43 0.42 0.43 0.45 0.46
0.73 0.76 0.69 0.53 0.44 0.47 0.44 0.41 0.38 0.32 0.26 0.28 0.28 0.30 0.32 0.33 0.30 0.33 0.30 0.37 0.33 0.27 0.29 0.27 0.27 0.26 0.29 0.29 0.26 0.25 0.28 0.27 0.26 0.25 0.27 0.26 0.19 0.23 0.22 0.23 0.29 0.26 0.26 0.26 0.28 0.29 0.27 0.23 0.29 0.25 0.23 0.25 0.31 0.32 0.32 0.33 0.32 0.30 0.32 0.34 0.32 0.31 0.29 0.30 0.26 0.27 0.24 0.24 0.26 0.27 0.25 0.26 0.34 0.40 0.43 0.43 0.42 0.42 0.41 0.43 0.43 0.43 0.43 0.43 0.43 0.44 0.46 0.47
0.72 0.78 0.76 0.63 0.42 0.49 0.41 0.38 0.36 0.30 0.24 0.33 0.30 0.33 0.31 0.31 0.37 0.31 0.23 0.31 0.34 0.34 0.34 0.32 0.31 0.28 0.28 0.29 0.27 0.26 0.25 0.28 0.28 0.29 0.30 0.30 0.31 0.32 0.32 0.31 0.32 0.30 0.28 0.27 0.31 0.26 0.24 0.22 0.22 0.23 0.20 0.20 0.25 0.28 0.27 0.27 0.27 0.26 0.28 0.31 0.33 0.33 0.33 0.32 0.27 0.28 0.28 0.28 0.24 0.22 0.24 0.32 0.36 0.42 0.40 0.42 0.42 0.42 0.41 0.41 0.41 0.43 0.45 0.45 0.45 0.45 0.47 0.49
Wind_Speed
18 18 19 19 20 20 20 20 19 18 17 16 15 14 13 11 10 10 9 9 8 7 7 6 5 5 4 3 3 3 4 5 5 6 6 6 7 7 7 7 7 8 9 10 10 10 10 11 11 10 10 9 9 9 9 10 10 10 10 10 9 7 5 3 3 2 2 2 5 5 4 4 3 2 2 0 1 2 1 2 1 1 2 3 4 5 6 5
17 18 19 19 19 20 20 19 18 17 16 16 15 14 13 11 10 10 9 9 9 8 8 7 7 6 6 5 5 5 5 5 5 5 6 6 6 6 7 8 8 9 10 11 11 11 10 10 10 8 9 8 8 9 8 8 10 10 10 9 9 7 6 3 1 3 3 3 4 5 4 4 5 4 2 1 1 3 2 1 0 1 1 3 4 5 5 5
17 18 19 19 19 20 20 19 18 17 16 16 15 14 13 12 11 10 10 10 9 9 8 8 8 8 8 7 7 6 6 6 5 5 5 6 7 7 8 9 9 10 11 11 11 11 10 9 8 7 8 8 9 8 8 8 8 9 9 8 8 7 6 4 3 5 5 4 3 5 5 4 5 3 2 3 3 4 4 3 1 2 4 5 5 5 5 5
17 18 18 19 19 19 19 18 18 17 16 16 15 14 13 12 11 11 10 10 10 10 10 9 9 9 9 8 8 7 7 7 7 6 7 8 8 9 9 10 11 11 11 11 11 10 9 8 7 7 8 8 9 8 8 8 7 7 8 8 7 7 5 5 5 6 6 4 2 2 4 3 4 4 5 6 3 1 4 6 5 7 8 7 6 5 5 5
17 18 18 19 19 20 19 18 18 17 17 16 15 14 13 12 12 11 11 11 11 11 11 10 10 9 9 8 8 7 8 8 8 8 8 9 10 10 11 11 11 12 12 11 10 10 8 7 7 7 7 7 8 7 8 9 8 7 7 7 7 7 5 6 6 6 5 3 2 2 1 3 4 6 8 7 3 3 5 6 8 11 10 8 7 6 5 5
17 18 18 19 19 20 20 18 18 17 17 16 15 14 14 13 12 12 12 12 11 11 11 11 10 10 9 9 9 9 9 9 8 9 10 11 11 12 12 12 12 12 11 10 9 9 7 7 7 7 8 7 6 7 7 8 9 7 6 7 8 7 6 5 5 5 4 3 4 5 3 3 4 4 6 7 5 6 7 7 8 10 9 7 7 6 6 5
17 18 19 19 19 20 20 19 18 18 17 17 16 15 14 13 12 12 12 12 12 11 11 11 10 10 9 9 10 10 11 10 9 10 11 12 13 13 13 12 12 11 10 9 8 8 7 6 6 7 7 6 5 6 5 6 9 8 6 7 8 8 7 6 5 5 5 4 6 6 5 4 5 4 4 6 7 8 8 7 7 7 7 7 7 6 6 5
17 18 19 19 19 20 20 19 18 18 17 17 16 16 15 14 13 13 12 12 12 12 12 11 11 10 10 11 11 11 11 10 10 11 12 13 14 14 14 12 12 11 10 9 9 8 7 5 4 4 5 4 4 4 5 5 7 9 7 7 6 7 7 6 5 5 5 6 6 5 6 7 6 5 4 6 8 9 9 7 7 7 7 8 7 6 5 5
17 18 18 19 19 20 20 19 18 18 17 17 16 16 15 14 14 13 13 13 13 13 12 12 12 12 12 12 13 12 11 12 13 13 14 14 14 13 13 11 11 10 8 8 7 7 6 5 4 3 3 4 3 3 4 3 5 7 7 7 7 7 7 6 5 4 5 6 5 5 8 8 6 5 5 7 9 9 9 9 8 9 8 7 7 6 6 5
16 17 18 19 19 19 20 19 18 17 17 17 16 16 15 15 14 14 13 13 13 13 13 13 12 12 13 12 13 13 12 13 14 14 14 14 13 12 11 10 9 8 6 5 5 5 5 4 3 1 2 3 2 3 4 3 4 6 6 7 7 8 7 6 6 6 6 6 5 6 8 9 6 6 6 7 10 11 10 9 9 9 8 7 6 6 6 5
16 17 18 18 19 19 19 19 18 17 17 16 16 16 15 15 15 14 14 14 13 13 14 14 13 13 13 13 14 12 12 13 13 13 12 12 11 10 9 8 8 6 5 4 2 3 4 4 2 1 2 2 1 2 3 3 3 5 5 5 7 7 8 8 8 8 6 6 6 5 7 8 7 6 8 9 11 13 11 9 9 9 8 7 7 6 6 5
15 16 17 18 18 19 19 19 19 18 17 17 16 16 15 15 15 15 15 15 14 15 15 14 14 13 13 13 13 12 11 12 12 11 10 10 9 8 7 6 5 4 3 2 1 1 3 3 2 2 2 1 0 2 2 3 3 4 2 3 5 4 6 8 8 7 6 6 6 5 5 7 7 7 10 12 12 13 11 9 9 9 8 7 7 7 6 6
14 15 16 17 18 18 18 19 19 18 18 17 17 16 16 15 15 15 15 15 15 15 15 15 14 13 14 14 12 12 12 12 12 11 9 9 8 7 6 5 5 4 3 3 2 2 2 3 3 2 1 1 1 1 2 4 4 4 2 2 3 2 4 6 6 6 5 6 6 5 5 8 8 7 11 13 13 13 10 9 9 8 7 7 7 7 6 6
13 14 15 16 17 17 18 18 19 19 18 18 17 16 16 16 16 15 15 15 15 14 14 14 14 13 14 13 12 12 12 11 11 10 9 8 7 6 6 6 6 6 5 4 3 3 2 2 3 1 1 1 1 2 2 3 3 3 3 2 2 3 5 6 5 6 5 5 5 4 3 7 7 7 11 14 13 13 11 10 10 8 7 7 7 7 6 6
12 13 14 15 16 16 17 18 18 18 18 18 17 17 16 15 15 15 15 15 14 14 14 14 14 14 14 13 13 12 11 10 9 8 9 9 8 7 7 7 6 6 5 5 5 4 3 2 2 2 0 1 2 3 3 3 3 2 3 4 3 4 5 7 5 7 8 6 5 4 2 4 6 5 9 15 16 15 13 12 11 9 8 8 7 6 6 6
11 12 13 14 15 15 16 17 17 17 17 17 17 16 15 15 14 14 14 14 14 14 14 14 14 14 14 14 13 12 11 10 9 9 9 10 9 8 7 7 6 5 5 4 4 4 4 3 2 2 1 2 2 3 4 4 4 3 2 3 3 3 4 6 5 2 8 7 5 4 2 1 3 3 4 11 15 15 13 13 12 9 8 8 6 5 5 5
11 11 12 13 14 14 15 15 16 16 16 16 15 15 14 14 14 14 14 14 14 14 14 13 13 14 15 14 13 13 12 10 10 10 9 9 8 7 8 7 6 5 4 4 3 3 3 3 3 2 2 3 3 3 4 4 5 4 3 2 3 3 3 4 5 3 2 7 7 4 3 2 1 2 2 6 14 15 13 11 11 9 7 6 5 4 4 4
10 10 11 12 12 13 13 14 14 15 14 14 14 13 13 13 13 13 14 14 13 13 13 12 12 14 13 13 13 12 12 11 10 9 9 9 7 6 6 6 5 5 5 5 4 3 3 3 4 4 4 4 4 4 4 4 5 5 4 2 3 2 2 3 3 4 3 5 8 5 4 2 1 1 1 3 11 14 12 10 10 9 7 7 5 5 5 4
9 9 10 10 11 11 12 13 13 14 14 14 14 14 15 15 14 13 14 14 13 13 13 12 12 13 12 11 11 11 11 10 9 8 8 7 7 6 5 5 4 4 5 5 4 3 3 4 4 4 4 4 5 4 3 3 4 4 3 3 3 2 2 3 4 4 1 5 8 9 6 3 4 3 2 2 6 9 8 10 10 8 8 7 6 6 5 4
8 8 9 9 10 10 11 12 12 13 14 14 14 15 16 16 15 14 14 13 13 13 12 11 11 12 11 10 10 10 10 10 9 7 6 6 6 6 6 6 5 4 4 3 3 3 4 5 4 3 3 4 5 6 5 5 5 5 5 5 4 4 4 3 4 4 3 8 8 9 8 6 6 5 4 4 5 5 6 8 8 8 8 7 6 6 5 5
7 7 7 8 8 9 10 10 11 12 13 13 14 14 15 15 14 13 13 13 13 13 11 10 10 10 10 10 9 10 10 10 9 7 6 6 6 7 7 7 7 6 4 3 3 4 6 6 5 4 4 5 6 8 8 8 8 7 7 7 7 6 6 5 2 3 4 8 7 8 9 8 6 6 5 4 5 4 5 6 7 7 8 7 7 6 6 6
6 6 6 6 7 8 8 9 10 11 12 12 13 14 14 14 14 12 12 12 12 13 12 10 10 10 10 9 9 9 9 9 9 8 7 7 7 6 6 7 7 6 5 6 6 6 6 6 6 7 6 7 9 11 11 11 10 9 9 8 8 9 8 8 4 2 5 8 8 7 9 8 6 5 4 4 4 4 4 5 6 6 6 7 7 7 8 8
5 5 5 5 6 6 7 7 9 10 11 11 11 12 12 12 12 12 12 11 11 12 12 11 11 10 10 9 9 10 9 9 9 9 8 8 7 6 6 7 8 8 8 8 7 6 6 6 7 9 9 9 11 13 12 12 11 10 8 6 8 9 8 9 9 6 6 9 10 8 8 7 5 4 4 4 4 4 4 4 5 5 5 6 7 6 7 7
4 4 4 5 5 5 5 6 7 9 10 10 10 11 11 11 11 11 12 10 10 11 11 10 10 9 9 10 10 10 9 8 8 9 9 8 8 7 7 7 8 9 9 8 8 7 5 6 7 9 11 10 11 13 12 11 11 9 6 4 5 7 8 9 11 10 7 9 11 9 6 4 3 4 4 3 3 3 3 3 2 3 4 6 6 6 6 5
4 4 4 4 4 4 4 5 7 8 8 9 10 10 10 10 11 11 11 10 10 10 10 10 9 9 9 10 9 9 9 8 8 9 8 8 8 7 7 6 6 8 9 8 8 8 7 7 8 9 11 11 11 13 12 10 10 9 6 3 4 5 7 9 11 12 9 7 9 8 5 3 2 3 4 3 3 2 2 2 2 1 2 4 6 7 7 7
3 3 3 3 3 3 4 5 6 7 8 8 9 9 9 9 9 10 10 10 10 9 9 10 9 9 9 9 9 9 9 9 8 9 8 8 8 7 7 7 6 7 6 6 7 7 7 8 9 9 10 12 12 13 12 10 10 8 6 3 2 1 4 7 10 12 11 8 8 8 8 7 5 3 3 5 3 2 2 2 2 2 3 4 5 6 7 8
2 2 3 3 3 3 4 5 5 6 7 6 7 8 8 8 8 8 8 9 10 8 8 9 8 9 8 8 9 9 9 9 8 8 8 9 9 8 9 8 6 7 6 5 6 6 7 9 10 11 11 12 12 13 13 11 10 8 5 4 3 1 2 5 8 12 13 10 7 7 9 9 6 5 5 6 4 3 3 4 4 4 5 5 5 6 7 8
2 2 2 2 2 3 4 4 4 5 5 5 6 7 7 7 7 7 8 8 8 7 8 8 8 8 7 7 8 7 8 9 9 8 9 10 10 9 10 9 7 8 8 5 5 5 6 8 9 11 11 12 12 13 13 12 11 8 6 3 3 1 1 3 6 12 14 10 7 7 8 7 6 6 6 6 4 3 4 5 5 4 4 5 6 7 8 8
1 1 1 1 2 3 3 3 3 3 4 5 6 7 6 7 7 7 8 7 6 7 8 8 8 9 9 8 6 6 7 9 9 9 10 11 10 8 8 8 7 8 10 8 6 6 7 7 8 10 12 12 11 12 13 13 11 9 6 4 4 3 0 2 5 10 13 10 7 8 8 8 7 7 7 6 5 5 6 6 6 5 5 6 7 8 9 10
0 0 1 1 2 2 2 2 2 2 4 5 6 6 6 6 7 7 7 6 6 7 7 7 8 8 10 9 7 6 7 8 9 9 10 11 11 10 8 8 8 7 8 9 8 7 7 8 9 10 11 11 10 11 13 13 12 10 8 7 6 5 3 2 3 7 12 11 8 8 8 8 8 7 7 6 6 7 8 8 8 7 7 8 8 9 10 11
0 0 1 1 2 2 2 2 1 2 3 5 6 6 6 6 7 8 6 5 6 7 7 7 7 8 9 9 8 7 7 8 7 7 8 9 11 12 10 9 8 6 7 9 8 8 9 9 10 10 11 12 12 12 13 13 13 12 11 10 8 7 6 4 2 5 9 11 9 8 7 7 7 8 7 7 8 8 8 8 9 8 8 8 9 10 10 12
0 0 1 1 2 2 1 1 1 2 4 5 5 5 6 6 7 7 5 5 5 6 6 6 6 7 9 9 8 7 6 7 7 6 7 8 9 11 11 10 8 6 6 7 7 8 8 9 9 10 11 13 12 12 12 13 13 13 12 12 10 8 7 6 3 4 7 9 8 8 7 6 7 9 8 8 9 9 9 10 9 8 8 9 9 10 10 11
0 0 1 2 2 1 1 1 1 2 3 5 5 5 6 6 6 6 5 5 5 5 5 5 6 6 7 9 9 8 7 8 8 7 6 7 8 10 11 11 10 8 5 5 6 7 7 8 10 11 11 12 12 12 11 12 13 12 11 11 11 9 8 6 4 4 5 7 7 7 7 6 7 9 9 10 10 11 12 11 9 7 8 9 10 10 11 12
0 0 1 1 2 2 2 1 1 2 3 5 5 6 7 6 4 5 6 5 4 4 5 6 6 6 7 8 8 8 8 8 8 7 7 7 8 10 10 11 12 9 6 5 6 6 6 7 10 11 10 11 12 12 10 11 13 12 10 10 10 9 8 6 5 5 4 4 4 4 5 6 7 8 9 9 10 10 10 9 7 7 9 9 10 11 12 13
0 1 1 1 1 2 2 2 2 2 3 5 5 6 6 5 4 5 5 5 5 5 5 6 7 7 7 7 7 8 7 7 7 7 8 8 8 9 10 10 11 9 7 7 6 6 6 6 8 9 10 10 12 12 10 11 12 11 10 10 10 8 8 7 6 6 5 4 2 1 3 5 5 6 7 7 7 8 6 5 6 8 9 10 11 12 13 13
1 1 1 1 1 2 3 3 3 3 4 5 6 6 5 4 3 4 4 5 5 5 5 6 7 8 7 7 8 8 7 6 6 7 8 8 8 9 9 9 10 9 8 7 6 6 6 6 8 8 9 11 11 12 12 11 10 10 10 9 7 7 8 8 7 6 6 5 3 2 2 2 2 3 5 5 5 6 5 5 7 8 9 10 11 12 13 13
2 1 1 1 1 2 3 4 4 4 4 5 5 5 4 3 4 3 4 5 5 5 6 6 7 7 7 7 8 9 9 7 7 8 8 8 8 9 9 8 9 9 8 7 6 5 5 5 7 8 9 10 10 11 13 14 11 9 10 8 6 7 8 7 6 6 6 5 2 2 1 1 1 2 3 3 4 5 6 7 8 9 10 10 11 11 12 12
2 1 1 2 2 3 4 5 4 3 3 4 4 3 3 3 4 4 5 5 5 6 7 6 6 7 7 8 8 9 10 9 8 8 8 8 7 8 9 8 8 10 9 7 6 6 5 5 6 8 7 8 8 9 12 14 13 10 8 7 6 6 6 6 6 5 5 4 2 2 1 1 1 2 3 3 4 6 7 8 9 10 10 10 11 12 12 12
2 2 2 2 3 4 5 5 4 4 4 4 3 3 3 3 4 5 5 5 5 6 7 6 6 6 7 7 7 9 10 10 9 8 8 8 7 8 10 9 8 9 9 9 7 6 5 5 5 8 7 6 8 9 10 11 12 11 9 8 7 6 6 6 5 4 4 3 2 1 1 2 2 2 3 4 5 6 7 9 9 10 10 10 11 11 12 12
2 3 3 3 4 5 5 5 3 3 4 3 3 3 3 3 4 5 5 5 5 5 6 6 6 7 7 7 8 8 10 10 9 9 8 8 7 8 10 10 9 8 8 9 8 6 6 5 6 7 8 7 8 9 9 9 10 11 10 10 8 6 5 5 5 5 4 3 2 1 1 2 2 3 3 4 5 6 6 8 9 10 11 11 11 12 12 12
3 3 3 4 4 4 4 3 2 3 3 2 3 3 2 3 3 4 6 6 5 5 6 6 6 6 6 7 8 8 9 10 9 8 8 9 8 8 10 11 10 8 7 8 8 7 6 5 5 6 7 9 8 8 9 9 10 9 9 9 7 5 5 5 4 5 4 3 1 1 1 3 3 3 4 4 5 5 6 7 8 10 11 12 13 13 13 13
4 3 4 4 4 3 3 2 2 3 3 3 2 3 2 3 3 4 5 6 6 6 6 7 7 6 6 7 8 9 9 10 10 8 8 8 8 8 9 11 11 9 7 7 7 6 6 6 6 5 6 7 7 8 10 10 10 9 9 8 7 6 6 4 3 4 4 4 2 2 2 4 4 3 4 4 5 6 6 7 8 10 11 12 13 14 14 14
4 4 4 4 4 3 3 2 1 2 2 2 2 3 3 3 3 4 4 5 5 6 6 6 6 7 6 6 8 9 9 9 10 9 7 8 8 8 10 12 11 9 7 7 7 7 7 6 6 5 5 5 5 7 9 10 10 10 9 9 7 6 5 4 2 3 4 5 4 3 4 5 5 4 4 4 5 7 7 7 8 10 12 13 13 14 15 15
5 4 5 5 4 3 3 3 3 2 1 1 2 2 3 3 3 4 4 4 4 5 5 5 6 6 6 6 8 9 8 9 9 9 8 8 8 8 9 11 11 10 8 6 6 7 7 6 6 5 6 7 7 8 8 10 11 9 9 9 8 7 6 5 4 4 5 5 4 4 4 5 5 4 4 5 6 7 8 8 10 11 12 13 14 14 15 15
4 4 5 5 4 3 3 3 4 3 1 1 2 1 2 2 3 4 4 4 4 5 5 5 6 6 6 7 8 9 9 8 8 9 9 9 8 8 8 9 10 10 9 6 6 7 7 7 7 6 5 5 6 6 7 9 10 9 9 9 9 8 8 6 5 5 5 6 5 4 4 6 7 5 5 6 7 8 9 10 11 12 13 13 14 15 15 15
4 5 5 4 4 4 3 3 3 3 2 2 2 1 2 2 2 4 4 4 4 5 5 4 5 7 7 7 8 9 10 9 8 8 9 9 8 7 7 8 9 9 9 8 8 8 8 7 7 6 5 4 4 5 6 7 9 9 8 8 8 8 8 7 6 6 5 5 6 6 4 5 7 6 5 8 9 9 10 10 11 13 13 13 14 15 15 15
5 5 5 4 5 4 3 3 3 3 3 3 2 2 2 2 1 2 3 3 3 4 5 5 6 6 6 7 7 8 9 9 9 8 8 9 8 8 7 7 9 9 9 9 9 8 8 8 7 7 6 5 4 4 6 7 8 7 6 7 7 7 8 8 7 6 6 6 7 8 6 5 7 7 6 8 9 10 10 11 12 13 13 14 15 15 15 15
6 6 5 5 5 5 4 4 4 3 3 3 2 2 2 2 1 1 1 1 2 3 4 4 6 6 6 6 6 7 8 9 9 8 7 8 9 9 8 8 9 8 9 10 9 8 8 7 8 8 8 7 5 4 5 6 7 6 5 6 7 7 7 7 6 6 6 6 7 8 6 5 7 7 7 8 8 8 9 10 12 13 14 15 15 15 15 16
7 6 5 4 5 6 6 6 5 4 3 2 2 2 2 1 1 1 0 1 2 2 3 3 4 5 6 6 6 6 7 7 8 8 7 7 8 7 7 8 8 8 9 9 9 8 8 7 7 8 9 9 7 5 4 5 6 6 7 6 5 5 6 7 7 7 7 7 7 7 6 6 7 8 8 9 8 8 9 11 12 13 14 15 15 15 15 15
7 7 6 4 5 6 5 5 5 4 3 3 2 3 3 2 2 2 0 0 1 2 2 2 2 3 5 6 6 6 6 5 6 7 6 7 8 7 6 7 7 8 9 9 9 9 9 7 7 8 9 9 9 6 5 6 6 6 8 8 6 6 7 8 8 8 8 8 9 8 7 8 9 9 9 8 7 8 10 11 12 13 13 15 15 15 15 15
8 8 7 6 6 6 6 6 6 5 5 4 4 4 3 3 4 2 2 1 1 2 2 1 2 3 5 6 6 6 6 5 5 6 6 6 7 6 6 6 6 7 9 9 9 10 9 8 8 9 8 8 8 7 7 7 7 7 9 9 7 6 7 8 9 9 8 8 8 8 8 9 10 10 9 8 7 9 10 11 12 13 14 15 15 14 15 16
8 9 8 8 8 7 6 6 6 5 6 6 6 5 4 5 5 3 2 4 2 1 2 2 2 4 5 5 5 6 6 6 6 7 7 6 7 7 6 5 5 6 6 7 9 9 9 9 9 9 8 7 8 8 7 8 8 7 7 7 5 6 7 9 11 11 9 8 7 8 9 10 10 10 10 9 9 9 10 11 13 13 14 15 15 16 16 17
Wind_Direction
2 2 2 2 2 1 1 2 3 5 7 8 8 8 9 10 12 15 19 23 27 32 35 39 44 47 58 73 92 109 122 138 148 156 166 169 171 176 178 178 176 174 169 165 164 163 163 163 167 168 168 171 173 173 173 179 184 181 176 183 190 187 190 187 192 255 292 223 208 212 180 150 178 172 151 129 49 105 202 276 243 224 218 210 188 166 163 161
5 5 6 6 6 6 6 8 9 10 13 14 14 15 16 18 21 25 29 33 38 43 47 51 55 60 71 82 92 101 111 127 138 151 163 162 160 162 163 162 160 159 157 157 156 155 155 161 165 162 165 171 170 170 173 177 177 171 168 182 194 193 198 205 237 284 277 219 227 230 205 168 175 193 177 191 218 126 119 319 82 128 169 172 159 156 159 161
9 10 10 11 11 11 11 12 14 15 17 18 19 20 23 26 30 34 37 41 47 52 55 58 62 68 76 85 91 96 104 116 127 137 143 146 148 147 147 149 152 151 151 152 151 152 154 160 164 160 163 168 166 166 169 174 174 173 171 180 196 196 203 239 283 291 267 218 236 237 209 184 182 191 156 148 151 140 159 180 158 158 162 162 162 159 163 173
13 14 16 16 15 15 14 16 17 18 21 23 22 25 29 33 38 42 45 50 55 57 59 61 66 71 77 83 86 91 101 107 118 125 123 130 135 134 137 140 143 144 145 145 148 150 153 158 161 162 163 166 170 169 172 181 182 181 179 183 200 200 212 256 265 277 265 216 230 219 174 187 189 158 144 144 133 152 181 173 168 165 160 159 164 166 169 175
19 20 21 20 19 18 18 20 21 23 26 27 28 30 34 38 43 48 54 57 60 61 63 66 69 74 77 80 82 89 99 103 112 118 117 123 126 126 129 131 134 137 138 139 144 146 149 155 156 160 161 164 171 169 178 193 191 189 196 199 209 207 220 257 257 260 256 225 235 208 176 227 191 153 157 158 162 213 193 168 157 156 158 162 165 166 167 168
24 25 25 23 22 22 22 24 26 27 30 32 33 36 39 44 50 55 59 60 63 65 67 70 71 74 75 78 83 90 98 104 112 114 114 119 122 123 123 125 129 133 137 139 141 142 146 151 153 158 154 156 168 170 186 202 195 201 218 215 219 220 229 264 265 240 219 227 240 228 248 240 193 184 183 176 185 191 178 161 150 151 157 159 159 157 160 166
28 28 28 26 26 26 27 29 30 32 34 36 39 42 45 50 56 59 61 62 64 66 69 70 71 72 72 78 87 93 99 105 111 111 114 119 120 121 121 123 126 126 130 135 136 137 139 137 147 155 147 152 172 182 204 217 202 206 224 221 225 228 237 271 266 226 210 231 242 233 237 224 203 207 194 187 188 176 168 162 151 150 153 153 155 157 159 159
31 31 31 30 31 31 32 33 35 36 38 41 44 48 52 56 59 61 63 64 66 67 69 69 70 70 74 83 90 93 95 99 106 110 114 117 118 118 118 120 121 118 120 128 130 127 124 119 133 147 150 166 179 200 237 240 209 209 224 228 229 237 254 279 263 235 243 245 245 241 233 230 214 191 181 187 183 171 167 163 152 151 152 156 159 159 160 153
34 34 34 35 35 35 35 36 38 39 41 44 48 52 56 59 61 63 65 67 69 69 68 68 69 71 78 88 92 91 91 96 103 109 113 116 116 115 115 116 116 112 113 122 128 129 130 130 138 148 173 192 194 232 251 235 212 217 228 234 237 250 264 282 282 263 259 249 251 256 242 236 211 185 189 185 178 173 168 163 158 156 155 161 163 161 162 158
36 37 38 38 38 39 38 39 40 42 45 48 51 54 58 61 64 66 67 69 69 69 69 70 72 74 81 87 92 93 94 99 104 108 112 114 113 112 112 114 114 110 107 113 131 149 156 156 160 180 194 203 220 248 240 210 230 244 242 240 243 255 261 267 279 273 264 256 252 247 238 232 211 199 210 192 179 175 168 166 167 167 168 170 170 168 168 168
40 41 41 41 41 41 41 41 42 45 48 51 53 56 59 62 65 66 68 69 69 70 71 72 73 76 82 85 89 95 100 105 109 110 111 114 112 111 111 112 114 113 110 109 126 159 176 186 190 167 168 185 244 244 232 212 252 264 256 256 255 265 272 267 267 267 263 257 244 230 233 233 222 214 208 193 183 179 172 172 178 184 188 183 180 177 173 176
43 43 44 43 43 43 44 44 45 48 51 53 55 58 60 63 66 67 69 71 72 74 72 72 73 75 82 84 86 95 101 105 110 109 109 112 111 111 111 111 118 120 119 118 92 112 156 176 136 112 148 135 298 206 240 271 284 274 253 258 264 281 287 273 265 261 249 245 241 228 239 240 230 218 200 188 183 181 175 177 188 195 198 192 184 179 177 182
45 46 45 45 45 46 47 48 48 51 53 55 57 59 62 64 66 68 70 72 75 76 73 71 71 73 80 85 87 92 98 104 106 105 104 105 102 101 103 106 111 105 104 112 78 75 114 132 111 109 147 93 75 192 269 291 288 274 247 230 261 311 305 280 264 254 239 233 229 215 236 241 232 216 195 188 185 182 180 185 192 196 199 198 193 190 189 189
48 48 47 48 48 49 50 52 53 54 55 56 58 60 63 65 67 68 70 72 73 73 70 69 68 72 79 85 89 90 97 104 104 103 102 101 99 93 91 93 96 92 91 92 74 73 106 122 92 74 136 116 343 316 311 295 286 272 263 248 251 279 291 294 266 236 228 222 203 185 225 230 223 214 198 196 192 185 189 191 190 193 195 198 200 200 197 194
50 50 49 50 52 53 55 56 56 56 55 56 57 59 61 64 67 70 72 73 73 71 68 67 67 72 78 81 86 88 92 97 97 101 100 99 101 93 85 87 89 86 82 81 75 73 83 91 65 58 125 302 334 337 326 305 303 289 269 265 260 266 282 311 293 227 213 210 191 167 189 219 222 236 217 208 201 190 192 194 191 193 193 193 197 198 199 201
53 52 52 53 56 57 58 58 57 56 55 55 55 56 58 63 68 72 75 75 74 71 67 66 68 74 79 81 82 83 88 92 90 94 97 97 99 92 81 81 84 79 71 71 74 69 72 75 48 47 352 329 356 353 339 329 325 322 286 263 266 286 297 335 354 226 206 205 199 173 155 199 220 282 260 211 203 194 194 196 194 196 195 194 196 197 200 202
56 55 55 57 60 60 59 59 57 56 55 53 54 55 58 64 71 74 76 76 73 70 66 66 71 76 79 79 80 81 86 92 90 90 90 91 95 89 76 72 74 71 59 55 63 58 58 59 34 30 18 1 4 355 353 340 319 308 304 275 263 297 326 350 19 19 218 202 204 173 105 76 170 315 331 195 194 194 198 199 194 194 191 190 191 191 193 192
59 58 58 60 63 62 60 59 58 57 53 50 50 54 59 67 75 76 75 73 70 68 67 69 74 77 75 75 80 81 80 84 87 87 84 82 84 78 66 62 65 61 49 49 61 65 53 36 26 24 16 8 356 348 355 340 318 310 312 289 266 290 337 345 348 327 308 202 192 159 111 73 70 359 358 175 183 189 199 200 192 189 186 189 190 190 193 195
63 62 62 64 65 64 63 61 59 55 50 48 52 61 67 69 73 76 73 70 68 68 71 73 74 78 78 77 79 78 75 77 79 81 79 73 70 60 45 46 55 54 44 43 51 58 50 24 17 16 2 357 357 353 348 324 313 305 302 285 269 277 286 317 338 320 342 130 149 143 125 94 85 90 88 115 152 168 185 189 191 195 195 198 195 194 201 205
66 65 66 67 67 66 65 62 58 52 49 51 57 65 69 65 69 72 64 64 69 68 69 74 76 78 79 75 74 73 71 70 68 71 71 63 55 43 35 35 34 41 48 48 38 33 57 53 29 10 352 351 354 347 335 324 313 293 282 280 268 265 268 275 345 356 117 124 134 142 125 104 104 110 112 101 117 144 174 185 196 207 206 206 197 197 206 214
69 69 68 69 68 65 64 62 57 51 50 53 59 68 71 67 71 69 59 61 65 65 66 74 79 75 72 70 65 65 64 63 59 56 53 44 42 40 39 38 34 35 40 58 60 45 63 62 32 10 1 356 347 334 330 327 319 300 279 274 267 259 258 250 289 25 135 141 140 141 120 104 112 125 124 99 109 148 184 191 201 203 203 205 198 199 208 215
70 72 69 68 68 64 63 59 54 52 52 56 64 72 74 70 70 67 63 63 58 61 67 70 73 68 64 62 57 61 64 61 55 44 38 36 45 54 49 44 45 41 29 45 67 61 54 42 19 13 4 356 346 334 331 327 319 309 288 271 263 255 246 238 221 116 139 152 146 138 124 110 108 121 121 100 117 154 176 185 195 193 200 212 211 213 213 212
70 74 72 69 67 66 64 53 51 56 56 60 65 69 70 64 61 55 59 66 58 59 64 64 68 66 60 56 53 60 62 62 56 41 39 47 54 63 55 41 40 41 34 41 61 61 43 20 13 15 5 358 348 340 339 332 323 317 301 272 261 253 237 229 214 180 150 154 152 140 131 125 119 118 107 90 110 138 150 166 188 196 209 224 226 223 212 207
70 73 75 72 67 66 59 51 57 59 57 63 65 64 63 56 53 50 54 68 63 57 59 60 65 62 56 52 51 56 57 60 54 39 44 58 56 53 49 38 35 36 33 37 49 49 36 9 8 13 7 4 357 352 355 349 338 329 314 280 263 249 226 221 213 200 177 162 166 159 138 130 133 132 128 120 118 118 118 125 151 186 206 222 232 236 238 244
69 73 78 77 70 60 54 61 65 57 59 70 65 57 55 51 52 51 55 66 60 54 55 54 57 55 50 48 46 53 56 54 48 40 48 58 50 44 39 34 35 29 21 30 42 39 29 9 6 12 9 9 7 1 0 1 357 346 329 296 266 238 223 220 206 199 197 191 198 193 174 183 185 148 158 186 168 141 133 109 118 171 216 238 249 256 264 276
69 74 77 80 77 59 64 76 63 52 62 70 57 45 46 47 47 49 59 65 57 53 53 51 55 54 49 45 43 50 50 42 38 40 45 43 38 42 32 19 24 20 11 28 35 28 22 11 11 17 11 9 10 4 359 6 15 2 342 333 318 249 226 220 201 196 201 209 219 207 188 194 208 201 219 230 208 195 233 259 268 266 273 272 270 271 272 276
71 74 78 86 82 71 83 83 59 56 66 61 44 35 35 38 39 47 62 63 53 53 52 49 54 51 44 40 42 51 47 34 31 34 38 35 32 44 37 21 25 15 1 27 31 21 21 16 13 15 11 9 11 7 359 7 24 9 345 6 24 45 198 213 203 197 198 202 212 207 188 189 205 220 236 241 222 231 266 277 283 282 280 274 271 275 278 278
70 76 87 91 86 90 94 79 61 66 65 45 30 26 28 35 39 52 69 65 51 50 51 47 48 42 30 27 38 52 45 36 37 32 36 40 36 42 36 26 33 20 8 36 49 26 22 22 16 15 15 12 10 8 1 9 22 6 346 6 20 25 191 204 199 198 197 194 203 213 194 188 210 224 233 240 234 255 276 276 281 288 287 280 275 275 276 278
66 83 97 92 100 107 94 79 81 74 43 25 21 20 27 37 47 59 67 66 52 47 50 47 44 37 29 32 39 43 34 33 43 41 38 39 32 32 34 30 35 26 21 46 64 43 30 30 24 21 19 11 5 8 10 16 17 5 359 2 1 6 1 187 184 192 194 193 210 223 205 191 210 226 235 244 247 260 270 271 275 284 287 286 284 282 278 278
55 94 106 100 119 115 93 93 103 59 19 18 20 22 30 42 59 63 58 62 56 46 47 44 40 37 36 41 39 34 34 33 46 49 39 36 31 27 32 33 33 33 33 42 51 43 34 31 25 20 20 17 15 18 18 20 18 17 23 23 23 32 53 134 162 177 186 198 216 220 204 195 209 228 236 241 246 255 263 271 276 285 292 292 291 291 286 282
303 153 131 121 131 125 103 102 93 46 23 19 16 26 42 52 64 67 59 60 53 37 34 35 36 35 35 38 34 30 32 26 37 48 33 28 29 25 25 25 25 34 40 38 39 34 31 30 23 19 23 24 25 24 21 21 25 30 36 42 51 53 58 78 115 154 176 199 212 211 205 198 209 225 234 243 252 258 266 272 275 284 296 298 295 295 292 287
300 222 181 153 147 146 134 119 71 39 24 18 21 38 59 60 55 57 52 47 46 30 25 34 37 34 32 34 32 30 31 27 33 43 32 25 25 25 29 29 29 36 36 30 33 31 30 28 22 20 22 23 26 26 22 23 28 34 40 48 55 55 58 68 96 145 172 196 208 213 211 202 213 225 237 254 263 269 275 277 276 283 294 299 299 298 296 293
255 243 207 181 173 176 165 145 48 35 25 25 40 56 67 69 55 48 44 45 50 33 28 39 29 22 33 34 27 26 35 36 33 34 30 27 25 25 28 31 34 41 40 30 30 27 23 18 17 18 17 20 28 31 29 27 29 35 42 49 56 60 65 71 95 127 162 191 207 219 214 214 229 233 242 257 268 276 279 277 279 290 297 301 303 302 300 298
244 204 193 196 194 200 195 173 91 62 37 38 58 64 63 68 61 48 44 40 42 33 34 35 14 15 38 40 31 35 42 36 30 30 22 18 23 23 23 24 28 37 42 37 32 27 23 15 13 18 18 18 26 32 37 37 33 36 46 56 59 62 69 73 94 116 145 174 197 223 213 218 234 239 249 261 273 281 278 275 283 295 298 300 304 305 304 301
192 176 191 222 203 193 189 170 144 98 56 51 65 65 63 68 59 47 38 25 30 32 29 29 29 41 46 36 32 38 44 38 30 32 26 24 28 23 20 20 22 32 39 36 29 27 36 25 13 19 24 24 25 25 30 37 35 34 46 55 54 57 68 72 84 106 120 123 117 170 192 210 226 242 259 271 284 288 284 287 299 300 299 303 305 306 306 303
147 148 185 236 179 161 155 149 140 104 70 66 67 65 71 76 58 47 36 27 35 39 34 34 43 55 47 34 30 25 30 37 30 26 24 28 33 23 17 19 22 29 36 38 30 26 40 31 15 21 28 28 28 24 25 32 35 36 42 47 47 58 73 78 76 79 85 90 88 112 162 216 231 251 273 283 292 297 300 308 311 308 308 311 311 310 311 309
135 139 198 228 183 153 152 144 128 101 78 77 77 74 79 67 43 37 32 31 39 45 52 52 45 47 43 36 27 16 20 27 23 25 25 24 25 18 13 15 20 25 30 38 32 26 44 36 17 23 27 21 24 29 29 28 32 40 39 35 40 52 62 74 77 62 63 76 74 75 113 245 273 273 289 303 307 308 311 314 318 317 317 319 318 318 319 318
134 137 187 201 171 149 152 143 124 102 80 79 83 78 71 50 31 35 38 39 46 46 54 59 49 46 45 39 26 17 23 23 17 26 31 26 24 20 16 15 16 17 21 34 34 27 47 48 19 19 23 13 16 28 27 22 26 35 32 32 49 57 50 55 65 63 66 75 59 46 55 326 323 286 291 306 309 311 315 317 320 320 321 324 323 322 322 321
130 119 129 145 137 129 136 136 119 96 82 83 95 84 69 49 33 41 49 54 59 55 55 57 52 48 44 40 32 23 27 30 25 29 34 31 29 24 21 20 15 13 21 36 38 26 41 55 24 10 12 13 15 23 23 17 20 25 26 33 48 64 65 57 56 59 71 77 64 46 360 326 313 296 294 298 305 313 319 320 321 322 324 324 323 323 323 321
139 131 141 139 127 123 125 122 105 94 92 103 119 102 74 54 42 44 52 59 63 58 58 57 53 52 44 36 33 27 30 34 33 33 33 32 31 22 18 22 19 12 21 35 36 28 31 45 33 10 9 24 26 23 27 25 24 27 32 35 35 43 55 55 46 42 51 64 61 45 343 307 295 307 307 301 308 317 322 324 324 325 325 323 321 322 322 322
151 142 161 154 138 131 115 99 96 110 115 117 113 98 82 67 52 45 50 61 65 61 63 64 56 55 48 37 31 28 31 34 32 33 32 30 33 26 17 20 21 15 22 30 29 31 29 35 43 25 25 46 43 25 28 31 29 32 34 32 33 40 46 43 28 17 29 50 43 351 332 301 292 313 313 307 312 315 320 328 330 329 328 324 322 321 320 319
162 162 176 166 158 152 117 96 115 120 123 132 112 87 83 79 62 48 48 55 60 57 58 57 54 53 48 40 35 32 36 36 30 31 33 30 35 32 19 19 22 25 35 34 23 28 35 39 49 39 36 59 51 26 29 30 26 27 25 24 31 34 38 41 16 355 11 18 360 1 352 308 296 308 305 306 314 313 316 324 328 329 328 327 326 325 322 318
174 186 190 179 176 165 127 114 116 103 125 149 113 77 74 76 70 61 50 49 51 52 53 51 52 53 46 41 38 34 37 40 35 34 36 28 27 28 21 20 25 30 37 36 20 20 31 40 48 39 19 25 18 13 21 20 18 19 13 15 24 20 22 32 18 2 7 1 350 353 341 311 306 311 295 298 312 314 315 317 323 327 327 327 327 324 323 322
190 194 192 184 179 166 146 152 153 142 154 123 78 71 76 70 69 72 60 53 54 54 56 51 47 49 43 40 40 34 34 40 37 35 36 30 24 27 26 24 29 32 32 32 24 21 28 35 43 40 15 2 358 359 4 4 9 15 9 10 19 19 20 21 16 15 3 351 351 348 324 306 312 315 299 302 313 316 317 316 320 325 325 326 325 322 322 324
188 187 191 190 181 172 176 179 168 168 173 101 80 100 103 72 70 83 76 62 61 63 60 46 40 43 36 33 36 33 33 37 35 30 31 31 25 25 27 25 29 33 31 29 30 31 36 36 38 41 24 5 359 354 352 355 2 8 9 13 20 24 26 21 14 17 1 348 356 350 314 305 314 316 308 311 315 316 318 320 322 326 327 327 326 323 322 323
183 185 194 201 198 190 202 203 169 160 169 142 119 120 120 105 83 88 79 63 58 60 56 39 34 37 30 28 30 28 28 31 32 29 26 26 24 21 24 24 26 31 31 29 28 32 35 30 30 39 29 9 1 348 348 2 7 6 10 14 14 20 30 30 23 19 7 357 355 340 315 311 316 314 308 310 314 315 318 324 328 330 329 327 326 325 324 323
191 191 193 201 212 207 208 212 182 174 186 165 151 158 141 135 113 69 60 64 69 59 47 31 30 33 26 24 26 20 19 21 23 22 17 16 20 20 22 24 23 23 24 23 21 26 30 20 16 23 15 359 356 350 354 10 14 12 14 12 5 10 25 28 17 6 7 6 349 334 331 323 312 310 306 308 316 321 321 326 328 327 326 326 326 326 325 323
200 200 197 195 206 207 200 199 189 182 188 178 177 190 161 140 132 83 49 65 71 56 43 21 17 26 25 25 26 16 13 15 13 12 11 10 14 15 14 14 15 16 16 13 13 22 30 17 6 10 1 350 351 355 2 13 14 13 11 3 1 5 13 14 1 352 4 2 336 330 339 328 311 308 305 308 319 324 322 324 326 326 327 328 327 326 325 325
204 206 209 204 207 208 200 194 184 177 191 205 226 214 180 169 194 204 136 52 7 9 45 24 352 8 21 23 26 17 11 14 7 359 2 4 4 8 10 6 4 7 11 9 7 17 25 11 1 8 4 355 357 3 16 21 12 3 359 356 360 1 1 2 351 344 357 354 332 334 343 328 313 308 310 318 325 328 329 329 328 328 329 330 329 328 328 327
205 209 217 218 216 216 210 203 195 197 218 227 236 234 211 198 224 253 276 102 310 325 12 18 320 349 13 15 20 11 359 9 6 353 356 2 356 358 4 2 1 6 11 11 9 13 19 7 358 12 13 2 1 3 11 20 12 356 352 352 357 1 1 360 351 346 350 346 337 342 343 327 317 315 321 330 333 332 333 330 327 328 330 333 334 333 331 327
210 215 219 215 220 226 225 222 213 211 228 232 229 238 235 224 228 247 295 290 245 275 306 285 291 336 360 4 6 354 343 355 359 346 349 357 351 352 357 356 7 16 13 12 12 13 16 8 2 14 16 1 357 354 349 1 10 358 350 349 350 357 357 351 347 344 339 333 336 342 337 325 318 320 329 335 332 329 329 326 326 329 332 335 336 333 330 326
218 220 220 216 220 229 231 234 230 219 228 232 226 232 239 237 236 237 288 299 300 287 270 261 295 332 347 347 338 328 330 338 339 333 338 342 338 340 343 344 5 20 12 9 10 11 15 13 6 11 10 353 348 348 344 357 8 354 343 348 352 355 358 352 347 343 337 335 338 330 323 322 323 326 333 335 330 327 326 326 328 330 334 337 334 331 329 326